Time,TemperatureF,DewpointF,PressureIn,WindDirection,WindDirectionDegrees,WindSpeedMPH,WindSpeedGustMPH,Humidity,HourlyPrecipIn,Conditions,Clouds,dailyrainin,SoftwareType,DateUTC
2013-07-13 00:18:00,54.6,52.0,30.05,NNE,32,0.0,1.0,91,0.00,,,0.00,weatherlink.com 1.10,2013-07-13 07:18:00,
2013-07-13 00:33:00,54.6,52.0,30.06,NNE,32,0.0,2.0,91,0.00,,,0.00,weatherlink.com 1.10,2013-07-13 07:33:00,
2013-07-13 00:48:00,54.6,52.0,30.06,NNE,32,0.0,1.0,92,0.00,,,0.00,weatherlink.com 1.10,2013-07-13 07:48:00,
2013-07-13 01:03:00,54.7,52.0,30.05,NNE,32,0.0,1.0,91,0.00,,,0.00,weatherlink.com 1.10,2013-07-13 08:03:00,
2013-07-13 01:18:00,54.6,52.0,30.05,NNE,32,0.0,2.0,92,0.00,,,0.00,weatherlink.com 1.10,2013-07-13 08:18:00,
2013-07-13 01:33:00,54.3,52.0,30.05,NNE,32,0.0,2.0,92,0.00,,,0.00,weatherlink.com 1.10,2013-07-13 08:33:00,
2013-07-13 01:48:00,54.2,52.0,30.05,NNE,32,0.0,1.0,92,0.00,,,0.00,weatherlink.com 1.10,2013-07-13 08:48:00,
2013-07-13 02:03:00,54.2,52.0,30.05,NNE,32,0.0,1.0,92,0.00,,,0.00,weatherlink.com 1.10,2013-07-13 09:03:00,
2013-07-13 02:18:00,54.2,52.0,30.05,NNE,32,0.0,1.0,92,0.00,,,0.00,weatherlink.com 1.10,2013-07-13 09:18:00,
2013-07-13 02:33:00,54.2,52.0,30.05,NNE,32,0.0,1.0,92,0.00,,,0.00,weatherlink.com 1.10,2013-07-13 09:33:00,
2013-07-13 02:48:00,54.4,52.0,30.05,NNE,32,0.0,1.0,92,0.00,,,0.00,weatherlink.com 1.10,2013-07-13 09:48:00,
2013-07-13 03:03:00,54.3,52.0,30.05,NNE,32,0.0,1.0,92,0.00,,,0.00,weatherlink.com 1.10,2013-07-13 10:03:00,
2013-07-13 03:18:00,54.1,52.0,30.06,NNE,32,0.0,2.0,92,0.00,,,0.00,weatherlink.com 1.10,2013-07-13 10:18:00,
2013-07-13 03:33:00,53.9,52.0,30.06,NNE,32,0.0,0.0,92,0.00,,,0.00,weatherlink.com 1.10,2013-07-13 10:33:00,
2013-07-13 03:48:00,53.8,52.0,30.05,NNE,32,0.0,1.0,93,0.00,,,0.00,weatherlink.com 1.10,2013-07-13 10:48:00,
2013-07-13 04:03:00,53.7,52.0,30.05,NNE,32,0.0,1.0,93,0.00,,,0.00,weatherlink.com 1.10,2013-07-13 11:03:00,
2013-07-13 04:18:00,53.7,52.0,30.06,NNE,32,0.0,0.0,93,0.00,,,0.00,weatherlink.com 1.10,2013-07-13 11:18:00,
2013-07-13 04:33:00,53.5,52.0,30.06,NNE,32,0.0,2.0,93,0.00,,,0.00,weatherlink.com 1.10,2013-07-13 11:33:00,
2013-07-13 04:48:00,53.5,52.0,30.07,NNE,32,0.0,2.0,93,0.00,,,0.00,weatherlink.com 1.10,2013-07-13 11:48:00,
2013-07-13 05:03:00,53.4,52.0,30.07,NNE,32,0.0,2.0,93,0.00,,,0.00,weatherlink.com 1.10,2013-07-13 12:03:00,
2013-07-13 05:18:00,53.3,51.0,30.08,NNE,32,0.0,1.0,93,0.00,,,0.00,weatherlink.com 1.10,2013-07-13 12:18:00,
2013-07-13 05:33:00,53.4,52.0,30.08,NNE,32,0.0,2.0,93,0.00,,,0.00,weatherlink.com 1.10,2013-07-13 12:33:00,
2013-07-13 05:48:00,53.5,52.0,30.08,NNE,32,0.0,1.0,93,0.00,,,0.00,weatherlink.com 1.10,2013-07-13 12:48:00,
2013-07-13 06:03:00,53.7,52.0,30.09,NNE,32,0.0,3.0,93,0.00,,,0.00,weatherlink.com 1.10,2013-07-13 13:03:00,
2013-07-13 06:18:00,54.2,52.0,30.09,NNE,32,2.0,2.0,93,0.00,,,0.00,weatherlink.com 1.10,2013-07-13 13:18:00,
2013-07-13 06:33:00,55.4,54.0,30.09,NNE,32,1.0,2.0,93,0.00,,,0.00,weatherlink.com 1.10,2013-07-13 13:33:00,
2013-07-13 06:48:00,56.7,55.0,30.10,NNE,32,0.0,1.0,92,0.00,,,0.00,weatherlink.com 1.10,2013-07-13 13:48:00,
2013-07-13 07:03:00,58.6,56.0,30.10,NNE,32,0.0,2.0,91,0.00,,,0.00,weatherlink.com 1.10,2013-07-13 14:03:00,
2013-07-13 07:18:00,60.8,58.0,30.09,NNE,32,0.0,1.0,89,0.00,,,0.00,weatherlink.com 1.10,2013-07-13 14:18:00,
2013-07-13 07:33:00,62.7,58.0,30.10,NNE,32,0.0,3.0,85,0.00,,,0.00,weatherlink.com 1.10,2013-07-13 14:33:00,
2013-07-13 07:48:00,64.7,57.0,30.09,NNE,32,0.0,2.0,76,0.00,,,0.00,weatherlink.com 1.10,2013-07-13 14:48:00,
2013-07-13 08:04:00,66.2,58.0,30.10,NNE,32,0.0,2.0,74,0.00,,,0.00,weatherlink.com 1.10,2013-07-13 15:04:00,
2013-07-13 08:19:00,67.9,57.0,30.09,NNE,32,1.0,3.0,68,0.00,,,0.00,weatherlink.com 1.10,2013-07-13 15:19:00,
2013-07-13 08:34:00,69.2,57.0,30.09,NNE,32,0.0,3.0,66,0.00,,,0.00,weatherlink.com 1.10,2013-07-13 15:34:00,
2013-07-13 08:49:00,70.1,56.0,30.09,ENE,66,0.0,3.0,61,0.00,,,0.00,weatherlink.com 1.10,2013-07-13 15:49:00,
2013-07-13 09:04:00,72.0,55.0,30.09,South,186,2.0,3.0,56,0.00,,,0.00,weatherlink.com 1.10,2013-07-13 16:04:00,
2013-07-13 09:19:00,72.7,55.0,30.09,SW,221,1.0,3.0,54,0.00,,,0.00,weatherlink.com 1.10,2013-07-13 16:19:00,
2013-07-13 09:34:00,73.1,53.0,30.09,East,99,0.0,4.0,50,0.00,,,0.00,weatherlink.com 1.10,2013-07-13 16:34:00,
2013-07-13 09:49:00,74.9,56.0,30.09,West,274,2.0,4.0,52,0.00,,,0.00,weatherlink.com 1.10,2013-07-13 16:49:00,
2013-07-13 10:04:00,74.9,55.0,30.09,West,264,0.0,4.0,51,0.00,,,0.00,weatherlink.com 1.10,2013-07-13 17:04:00,
2013-07-13 10:19:00,75.4,56.0,30.09,West,265,4.0,6.0,52,0.00,,,0.00,weatherlink.com 1.10,2013-07-13 17:19:00,
2013-07-13 10:34:00,75.7,56.0,30.09,West,266,3.0,6.0,50,0.00,,,0.00,weatherlink.com 1.10,2013-07-13 17:34:00,
2013-07-13 10:49:00,75.7,56.0,30.09,WSW,245,2.0,6.0,50,0.00,,,0.00,weatherlink.com 1.10,2013-07-13 17:49:00,
2013-07-13 11:04:00,76.6,55.0,30.09,West,269,4.0,7.0,47,0.00,,,0.00,weatherlink.com 1.10,2013-07-13 18:04:00,
2013-07-13 11:19:00,76.2,51.0,30.08,WNW,287,2.0,7.0,42,0.00,,,0.00,weatherlink.com 1.10,2013-07-13 18:19:00,
2013-07-13 11:34:00,77.7,51.0,30.08,West,271,3.0,6.0,40,0.00,,,0.00,weatherlink.com 1.10,2013-07-13 18:34:00,
2013-07-13 11:49:00,77.6,51.0,30.07,West,265,2.0,6.0,40,0.00,,,0.00,weatherlink.com 1.10,2013-07-13 18:49:00,
2013-07-13 12:04:00,78.1,53.0,30.07,SSW,205,0.0,7.0,42,0.00,,,0.00,weatherlink.com 1.10,2013-07-13 19:04:00,
2013-07-13 12:19:00,79.8,55.0,30.06,NW,315,2.0,9.0,42,0.00,,,0.00,weatherlink.com 1.10,2013-07-13 19:19:00,
2013-07-13 12:34:00,79.0,53.0,30.06,West,270,0.0,7.0,41,0.00,,,0.00,weatherlink.com 1.10,2013-07-13 19:34:00,
2013-07-13 12:49:00,78.4,52.0,30.05,West,267,2.0,7.0,40,0.00,,,0.00,weatherlink.com 1.10,2013-07-13 19:49:00,
2013-07-13 13:04:00,79.9,52.0,30.05,WSW,252,1.0,9.0,38,0.00,,,0.00,weatherlink.com 1.10,2013-07-13 20:04:00,
2013-07-13 13:19:00,80.9,51.0,30.04,SW,229,0.0,8.0,36,0.00,,,0.00,weatherlink.com 1.10,2013-07-13 20:19:00,
2013-07-13 13:34:00,80.7,51.0,30.04,SW,233,5.0,9.0,35,0.00,,,0.00,weatherlink.com 1.10,2013-07-13 20:34:00,
2013-07-13 13:49:00,80.6,51.0,30.03,South,191,0.0,8.0,36,0.00,,,0.00,weatherlink.com 1.10,2013-07-13 20:49:00,
2013-07-13 14:05:00,81.5,52.0,30.03,WSW,250,0.0,6.0,36,0.00,,,0.00,weatherlink.com 1.10,2013-07-13 21:05:00,
2013-07-13 14:20:00,82.6,52.0,30.03,SSW,200,4.0,8.0,35,0.00,,,0.00,weatherlink.com 1.10,2013-07-13 21:20:00,
2013-07-13 14:35:00,82.6,53.0,30.03,SW,221,2.0,8.0,36,0.00,,,0.00,weatherlink.com 1.10,2013-07-13 21:35:00,
2013-07-13 14:50:00,81.0,54.0,30.03,West,274,4.0,7.0,40,0.00,,,0.00,weatherlink.com 1.10,2013-07-13 21:50:00,
2013-07-13 15:05:00,79.0,54.0,30.03,West,266,3.0,11.0,42,0.00,,,0.00,weatherlink.com 1.10,2013-07-13 22:05:00,
2013-07-13 15:20:00,79.6,54.0,30.03,West,273,5.0,8.0,41,0.00,,,0.00,weatherlink.com 1.10,2013-07-13 22:20:00,
2013-07-13 15:35:00,79.7,54.0,30.02,SSE,151,0.0,7.0,41,0.00,,,0.00,weatherlink.com 1.10,2013-07-13 22:35:00,
2013-07-13 15:50:00,81.3,54.0,30.02,South,184,2.0,5.0,39,0.00,,,0.00,weatherlink.com 1.10,2013-07-13 22:50:00,
2013-07-13 16:05:00,80.5,54.0,30.01,WSW,255,2.0,7.0,40,0.00,,,0.00,weatherlink.com 1.10,2013-07-13 23:05:00,
2013-07-13 16:20:00,81.2,52.0,30.00,NW,318,1.0,7.0,37,0.00,,,0.00,weatherlink.com 1.10,2013-07-13 23:20:00,
2013-07-13 16:36:00,80.8,51.0,30.00,SSW,210,3.0,7.0,35,0.00,,,0.00,weatherlink.com 1.10,2013-07-13 23:36:00,
2013-07-13 16:50:00,80.5,50.0,30.00,SW,231,4.0,7.0,35,0.00,,,0.00,weatherlink.com 1.10,2013-07-13 23:50:00,
2013-07-13 17:05:00,80.5,50.0,30.00,West,262,2.0,5.0,34,0.00,,,0.00,weatherlink.com 1.10,2013-07-14 00:05:00,
2013-07-13 17:20:00,79.0,51.0,30.00,West,259,0.0,5.0,37,0.00,,,0.00,weatherlink.com 1.10,2013-07-14 00:20:00,
2013-07-13 17:35:00,78.0,52.0,30.00,SW,225,0.0,6.0,40,0.00,,,0.00,weatherlink.com 1.10,2013-07-14 00:35:00,
2013-07-13 17:50:00,77.5,52.0,30.01,SW,225,0.0,1.0,41,0.00,,,0.00,weatherlink.com 1.10,2013-07-14 00:50:00,
2013-07-13 18:05:00,76.6,52.0,30.01,NE,45,3.0,14.0,43,0.00,,,0.00,weatherlink.com 1.10,2013-07-14 01:05:00,
2013-07-13 18:20:00,75.0,53.0,30.01,NNE,21,1.0,5.0,46,0.00,,,0.00,weatherlink.com 1.10,2013-07-14 01:20:00,
2013-07-13 18:35:00,74.1,53.0,30.02,NNE,23,0.0,4.0,48,0.00,,,0.00,weatherlink.com 1.10,2013-07-14 01:35:00,
2013-07-13 18:50:00,73.3,53.0,30.01,North,359,0.0,9.0,50,0.00,,,0.00,weatherlink.com 1.10,2013-07-14 01:50:00,
2013-07-13 19:05:00,72.4,53.0,30.01,ESE,107,0.0,6.0,51,0.00,,,0.00,weatherlink.com 1.10,2013-07-14 02:05:00,
2013-07-13 19:20:00,72.0,53.0,30.02,NNE,23,0.0,5.0,52,0.00,,,0.00,weatherlink.com 1.10,2013-07-14 02:20:00,
2013-07-13 19:35:00,71.3,53.0,30.01,North,6,3.0,7.0,53,0.00,,,0.00,weatherlink.com 1.10,2013-07-14 02:35:00,
2013-07-13 19:50:00,70.6,54.0,30.01,North,6,0.0,5.0,55,0.00,,,0.00,weatherlink.com 1.10,2013-07-14 02:50:00,
2013-07-13 20:05:00,69.9,53.0,30.01,NNE,27,0.0,4.0,56,0.00,,,0.00,weatherlink.com 1.10,2013-07-14 03:05:00,
2013-07-13 20:20:00,69.4,52.0,30.02,NE,54,0.0,3.0,55,0.00,,,0.00,weatherlink.com 1.10,2013-07-14 03:20:00,
2013-07-13 20:35:00,69.1,52.0,30.02,NE,54,0.0,3.0,55,0.00,,,0.00,weatherlink.com 1.10,2013-07-14 03:35:00,
2013-07-13 20:50:00,68.8,52.0,30.02,NNE,19,0.0,1.0,55,0.00,,,0.00,weatherlink.com 1.10,2013-07-14 03:50:00,
2013-07-13 21:05:00,68.5,52.0,30.03,NNE,19,0.0,2.0,55,0.00,,,0.00,weatherlink.com 1.10,2013-07-14 04:05:00,
2013-07-13 21:20:00,68.1,52.0,30.02,NNE,19,0.0,1.0,56,0.00,,,0.00,weatherlink.com 1.10,2013-07-14 04:20:00,
2013-07-13 21:35:00,67.7,52.0,30.03,NNE,19,0.0,1.0,57,0.00,,,0.00,weatherlink.com 1.10,2013-07-14 04:35:00,
2013-07-13 21:50:00,67.4,51.0,30.03,NNE,19,0.0,2.0,56,0.00,,,0.00,weatherlink.com 1.10,2013-07-14 04:50:00,
2013-07-13 22:05:00,67.1,51.0,30.03,NE,40,0.0,2.0,57,0.00,,,0.00,weatherlink.com 1.10,2013-07-14 05:05:00,
2013-07-13 22:20:00,67.3,51.0,30.03,NNE,32,0.0,3.0,57,0.00,,,0.00,weatherlink.com 1.10,2013-07-14 05:20:00,
2013-07-13 22:35:00,67.4,51.0,30.03,NNE,32,0.0,0.0,57,0.00,,,0.00,weatherlink.com 1.10,2013-07-14 05:35:00,
2013-07-13 22:50:00,67.0,52.0,30.02,NNE,32,0.0,1.0,59,0.00,,,0.00,weatherlink.com 1.10,2013-07-14 05:50:00,
2013-07-13 23:05:00,66.4,52.0,30.02,NNE,32,0.0,1.0,61,0.00,,,0.00,weatherlink.com 1.10,2013-07-14 06:05:00,
2013-07-13 23:20:00,65.8,53.0,30.02,NNE,32,0.0,1.0,63,0.00,,,0.00,weatherlink.com 1.10,2013-07-14 06:20:00,
2013-07-13 23:35:00,65.1,53.0,30.02,NNE,32,0.0,0.0,64,0.00,,,0.00,weatherlink.com 1.10,2013-07-14 06:35:00,
2013-07-13 23:50:00,64.4,52.0,30.02,NNE,32,0.0,0.0,65,0.00,,,0.00,weatherlink.com 1.10,2013-07-14 06:50:00,